Location: Strawberry
(45.6646°N, 111.9596°W)
Time: 18:18:55
(UTC+00:00)

SR - Pass Details

Date: 09 October 2022
Orbit: 577 x 874 km, 66.7° (Epoch: 05 December)

Event Time Altitude Azimuth Distance (km) Brightness Sun altitude
Rises 05:00:07 0° 265° (W) 3,464 ? -41.0°
Reaches altitude 10° 05:03:25 10° 283° (WNW) 2,527 ? -41.4°
Maximum altitude 05:07:27 19° 326° (NNW) 1,960 ? -41.9°
Enters shadow 05:08:35 18° 341° (NNW) 2,001 ? -42.0°
